This is the latest recevied weather packets stored in our database for station/object K7KAR-2. If no packets are shown the sender has not sent any weather packets the latest 10 day(s).
| Time | Temp. | Humidity | Pressure | Rain* | Wind** | Luminosity | Snow |
|---|---|---|---|---|---|---|---|
| 1787786590 | 31.11° C | 22% | 1017.8 hPa | 0 mm | - | 171 W/m² | - |
| 1787786285 | 31.11° C | 22% | 1017.6 hPa | 0 mm | - | 154 W/m² | - |
| 1787785981 | 31.11° C | 23% | 1017.6 hPa | 0 mm | - | 134 W/m² | - |
| 1787785675 | 31.11° C | 23% | 1017.7 hPa | 0 mm | - | 107 W/m² | - |
| 1787785370 | 31.11° C | 23% | 1017.8 hPa | 0 mm | - | 109 W/m² | - |
| 1787785069 | 31.11° C | 23% | 1017.9 hPa | 0 mm | - | 115 W/m² | - |
| 1787784764 | 31.67° C | 23% | 1017.9 hPa | 0 mm | - | 127 W/m² | - |
| 1787784464 | 31.67° C | 23% | 1018 hPa | 0 mm | - | 115 W/m² | - |
| 1787784163 | 31.67° C | 23% | 1018 hPa | 0 mm | - | 106 W/m² | - |
| 1787783860 | 31.67° C | 23% | 1018.1 hPa | 0 mm | - | 110 W/m² | - |
| 1787783555 | 32.22° C | 22% | 1018.4 hPa | 0 mm | - | 119 W/m² | - |
| 1787783250 | 32.22° C | 22% | 1018.2 hPa | 0 mm | - | 125 W/m² | - |
| 1787782945 | 32.22° C | 21% | 1018.1 hPa | 0 mm | - | 142 W/m² | - |
| 1787782644 | 32.22° C | 22% | 1018.5 hPa | 0 mm | - | 159 W/m² | - |
| 1787782340 | 32.22° C | 22% | 1018.4 hPa | 0 mm | - | 174 W/m² | - |
| 1787782035 | 31.67° C | 22% | 1018.4 hPa | 0 mm | - | 200 W/m² | - |
| 1787781730 | 32.22° C | 22% | 1018.2 hPa | 0 mm | - | 239 W/m² | - |
| 1787781428 | 33.33° C | 21% | 1018.4 hPa | 0 mm | - | 290 W/m² | - |
| 1787781127 | 33.33° C | 21% | 1018.2 hPa | 0 mm | - | 350 W/m² | - |
| 1787780827 | 33.33° C | 20% | 1018.5 hPa | 0 mm | - | 431 W/m² | - |
| 1787780521 | 33.33° C | 20% | 1018.8 hPa | 0 mm | - | 443 W/m² | - |
| 1787780216 | 33.89° C | 20% | 1018.6 hPa | 0 mm | - | 666 W/m² | - |
| 1787779912 | 34.44° C | 19% | 1018.6 hPa | 0 mm | - | 744 W/m² | - |
| 1787779606 | 34.44° C | 20% | 1018.7 hPa | 0 mm | - | 735 W/m² | - |
| 1787779306 | 33.89° C | 19% | 1018.9 hPa | 0 mm | - | 749 W/m² | - |
* Rain latest hour (hover to see other rain measurements)
** Current wind speed in m/s (hover to see current wind gust speed)